www.pogodaiklimat.ru

Погода и климат >> Архив погоды >> Россия >> Приморский край >> Терней


АРХИВ ПОГОДЫ в Тернее

Время (UTC), дата Ветер
(напр.,м/с)
 
Видим.   Явления Облачность Т
(С)
Тd
(С)
f
(%)
Тe
(С)
Тes
(С)
Комфортность P
(гПа)
Po
(гПа)
Тmin
(С)
Tmax
(С)
R
(мм)
R24
(мм)
S
(см)
21 9.06 штиль 0 50 км 10/10 300 м
[St]
+9.8 +8.4 91 +9 +9 1014.3 1006.8 +9.2
00 10.06 ЮВ 1 50 км 10/10 300 м
[St]
+10.7 +8.6 87 +10 +10 1014.1 1006.6
03 10.06 ЮВ 3 50 км 4/4 300 м
[St]
+12.8 +9.2 79 +11 +21 опасность
простуды
1013.2 1005.8
06 10.06 ЮВ 2 50 км 6/0
[Ac trans]
+12.2 +8.0 75 +11 +19 1012.2 1004.8
09 10.06 ЮВ 1 50 км 3/3 300 м
[St]
+10.4 +7.6 83 +10 +11 1011.4 1003.9 +13.0
12 10.06 штиль 0 20 км 10/10 300 м
[St]
+9.2 +7.7 90 +8 +8 1012.4 1004.9
15 10.06 штиль 0 20 км 10/10 300 м
[St]
+9.4 +7.7 89 +9 +9 1012.9 1005.4
18 10.06 З 1 20 км 10/10 300 м
[St]
+9.0 +7.6 91 +8 +8 1012.4 1004.8
21 10.06 СЗ 1 50 км 8/8 300 м
[St]
+10.5 +8.1 85 +10 +11 1011.4 1003.9 +8.5
00 11.06 ЮВ 2 50 км 8/8 300 м
[St]
+12.8 +9.0 78 +12 +15 1011.3 1003.9
03 11.06 ЮВ 3 50 км 10/10 300 м
[St]
+11.5 +9.0 85 +10 +10 1011.0 1003.6
06 11.06 ЮВ 2 50 км 10/10 300 м
[St]
+12.0 +9.0 82 +11 +11 1010.3 1002.9
09 11.06 ЮВ 1 10 км слаб. ливневой дождь 10/10 300 м
[Cb cap]
+10.0 +8.7 92 +9 +9 1012.5 1005.0 +13.0 0.0
12 11.06 штиль 0 20 км {ливн. осадки} 10/10 300 м
[St]
+9.9 +8.9 93 +9 +9 1013.8 1006.3
15 11.06 штиль 0 20 км 10/10 300 м
[St]
+10.1 +8.6 90 +9 +9 1013.1 1005.6
18 11.06 штиль 0 20 км {ливн. осадки} 10/10 300 м
[St]
+9.8 +8.8 93 +9 +9 1012.8 1005.3
21 11.06 штиль 0 4000 м сильн. морось {ливн. осадки} 10/10 300 м
[St]
+10.0 +9.3 95 +9 +9 1012.8 1005.3 +9.7 0.4
00 12.06 ЮВ 1 50 км {ливн. осадки, морось} 10/8 300 м
[St As trans]
+11.6 +10.2 91 +11 +13 1013.0 1005.5
03 12.06 ЮВ 1 10 км слаб. ливневой дождь {морось} 10/10 200 м
[Cb cap]
+10.9 +9.8 93 +10 +10 1012.2 1004.8
06 12.06 штиль 0 10 км слаб. ливневой дождь {морось} 10/10 200 м
[Cb cap]
+10.6 +9.7 94 +10 +10 1011.6 1004.1
09 12.06 В 1 20 км {ливн. осадки} 10/10 300 м
[St]
+10.1 +9.2 94 +10 +10 1012.0 1004.5 +11.6 5
12 12.06 ЮВ 1 20 км {ливн. осадки} 10/10 300 м
[St]
+9.5 +8.5 93 +9 +9 1012.7 1005.2
15 12.06 штиль 0 20 км 10/10 300 м
[St]
+9.1 +7.7 91 +8 +8 1012.2 1004.7
18 12.06 штиль 0 20 км {ливн. осадки} 10/10 300 м
[St]
+8.6 +7.6 93 +8 +8 1011.7 1004.2
21 12.06 штиль 0 50 км 10/10 300 м
[St]
+8.8 +8.0 95 +8 +8 1011.7 1004.2 +8.6 2
00 13.06 ЮВ 1 50 км 10/10 300 м
[St]
+11.1 +7.9 81 +11 +11 1011.5 1004.1
03 13.06 ЮВ 1 50 км 10/10 300 м
[St]
+11.5 +8.9 84 +11 +11 1010.6 1003.2
06 13.06 ЮВ 2 50 км 10/10 300 м
[St]
+11.5 +9.4 87 +10 +10 1009.3 1001.9
09 13.06 ЮВ 1 50 км 10/10 200 м
[St]
+11.1 +9.8 92 +11 +11 1009.0 1001.6 +12.7
12 13.06 штиль 0 1000 м слаб. морось 10/10 200 м
[St]
+10.4 +9.8 96 +10 +10 1009.4 1002.0
15 13.06 штиль 0 1000 м слаб. морось 10/10 200 м
[St]
+10.3 +9.8 97 +9 +9 1008.2 1000.7
18 13.06 штиль 0 1000 м слаб. морось 10/10 200 м
[St]
+10.6 +10.0 96 +10 +10 1005.9 998.5
21 13.06 штиль 0 1000 м дымка 10/10 200 м
[St]
+10.7 +10.2 97 +10 +10 1005.3 997.9 +10.2 2
00 14.06 ЮВ 1 50 км {морось} 8/3 300 м
[St Cs]
+15.3 +12.2 82 +16 +25 1004.3 997.0
03 14.06 В 1 50 км 10/10 600 м
[Sc]
+14.8 +12.4 86 +15 +15 1005.0 997.7
06 14.06 штиль 0 50 км 10/10 600 м
[Sc]
+14.1 +12.1 88 +14 +14 1004.7 997.4
09 14.06 С 1 50 км 10/10 600 м
[Sc]
+12.6 +11.2 91 +13 +13 1004.9 997.5 +15.8
12 14.06 В 3 20 км 10/3 300 м
[St Ci sp]
+10.8 +9.2 90 +9 +9 1008.4 1001.0
15 14.06 В 2
{10}
20 км 10/10 300 м
[St]
+10.7 +8.1 84 +9 +9 1009.8 1002.4
18 14.06 В 1
{10}
20 км 10/10 300 м
[St]
+10.2 +7.9 86 +10 +10 1009.7 1002.2
21 14.06 В 2 50 км 10/10 300 м
[St]
+9.5 +7.6 88 +8 +8 1010.8 1003.3 +9.5
00 15.06 В 2 50 км {ливн. осадки} 10/10 300 м
[St]
+10.4 +8.1 86 +9 +9 1010.7 1003.2 +8.9
03 15.06 В 3 10 км слаб. ливневой дождь 10/10 300 м
[Cb cap]
+9.6 +7.4 86 +7 +7 1011.8 1004.3
06 15.06 В 2 50 км {ливн. осадки} 10/10 600 м
[Sc]
+9.3 +7.3 87 +8 +8 1011.1 1003.6
09 15.06 В 2 10 км слаб. ливневой дождь 10/10 300 м
[Cb cap]
+8.5 +7.0 90 +7 +7 1011.6 1004.1 +10.8 0.3
12 15.06 ЮВ 1 10 км слаб. ливневой дождь 10/10 300 м
[Cb cap]
+9.1 +7.4 89 +8 +8 1012.1 1004.6
15 15.06 С 1
{12}
20 км {ливн. осадки} 10/10 600 м
[Sc]
+11.0 +5.1 67 +11 +11 1010.8 1003.4
18 15.06 З 1 20 км {ливн. осадки} 10/10 600 м
[Sc]
+9.3 +7.2 87 +9 +9 1009.2 1001.7
21 15.06 СЗ 1 50 км 10/10 600 м
[Sc]
+9.5 +7.1 85 +9 +9 1008.3 1000.9 +8.4 2
00 16.06 В 2 50 км 9/3 1000 м
[Sc Ac trans Ci sp]
+14.4 +5.8 56 +14 +19 1006.6 999.3
03 16.06 В 3 50 км 10/0
[Ac und]
+11.5 +4.7 63 +10 +15 1005.9 998.5
06 16.06 В 3
{10}
50 км 10/0
[Ac und]
+11.6 +5.9 68 +10 +13 1005.3 997.9
09 16.06 В 2 50 км 10/3 600 м
[Sc Ac und]
+10.0 +5.1 72 +9 +9 1005.8 998.4 +14.6
12 16.06 штиль 0 20 км 10/10 600 м
[Sc]
+9.7 +5.2 74 +9 +9 1007.2 999.7
15 16.06 З 1 20 км 10/0
[Cs]
+6.5 +5.0 90 +5 +5 1007.2 999.7

 

Местоположение метеостанции Терней (Приморский край, Россия): широта 45.00 долгота 136.60 высота над уровнем моря 62 м.

В архиве по умолчанию представлена погода в Тернее за последнюю неделю. Архивные данные за месяц целиком и за предыдущие месяцы, начиная с января 2011 года, Вы можете получить, выбрав интересующий диапазон дат из раскрывающегося списка и нажав кнопку "Ввод!".


*Определитесь, кто Вы:
робот инопланетянин человек

Внимание! Время в таблицах - всемирное. Для получения местного времени необходимо прибавить поправку, которая равна 10 ч.

Смотрите также архив погоды в соседних городах и на ближайших метеорологических станциях:

Погода в Малой Кеме (Приморский край, Россия) (59 км)
Погода в Рудной Пристани (Приморский край, Россия) (94 км)
Погода в Мельничном (Приморский край, Россия) (100 км)
Погода в Богополе (Приморский край, Россия) (126 км)
Погода в Кавалерово (Приморский край, Россия) (152 км)
Погода в Глубинном (Приморский край, Россия) (156 км)
Погода в Ольге (Приморский край, Россия) (173 км)
Погода в Дальнегорске (Приморский край, Россия) (181 км)
Погода в Малиново (Приморский край, Россия) (194 км)
Погода в Красном Яре (Приморский край, Россия) (198 км)

Пояснения к столбцам:

Ветер - указаны скорость ветра в м/с - средняя за 10 мин, порывы в срок и между сроками (в фигурных скобках) и направление, откуда дует ветер: С - северный, СВ - северо-восточный, В - восточный, ЮВ - юго-восточный, Ю - южный, ЮЗ - юго-западный, З - западный, СЗ - северо-западный.
Видимость - горизонтальная дальность видимости в метрах или километрах. При видимости от 1 до 10 км при отсутствии осадков обычно наблюдается дымка, при ухудшении видимости до 1 км и менее - туман. В сухую погоду видимость может ухудшаться дымом, пылью или мглою.
Явления - указаны атмосферные явления, наблюдавшиеся в срок или в последний час перед сроком; фигурными скобками обозначены явления, наблюдавшиеся между сроками (за 1-3 часа до срока); квадратными скобками обозначены град или гололедные отложения с указанием их диаметра в мм.
Облачность - указаны через наклонную черту общая и нижняя облачность в баллах и высота нижней границы облаков в метрах; квадратными скобками обозначены формы облаков: Ci - перистые, Cs - перисто-слоистые, Cc - перисто-кучевые, Ac - высококучевые, As - высокослоистые, Sc - слоисто-кучевые, Ns - слоисто-дождевые, Cu - кучевые, Cb - кучево-дождевые. Подробнее классификацию облаков см. в Атласе облаков (PDF).
T - Температура воздуха - температура, измеренная на высоте 2 м над землей.
Td - Температура точки росы - температура, при понижении до которой содержащийся в воздухе водяной пар достигнет насыщения.
f - Относительная влажность воздуха - влажноcть воздуха, измеренная на высоте 2 м над землей.
Te - Эффективная температура - температура, которую ощущает одетый по сезону человек в тени. Характеристика душности погоды. При расчете учитывается влияние влажности воздуха и скорости ветра на теплоощущения человека.
Tes - Эффективная температура на солнце - температура, которую ощущает человек, с поправкой на солнечный нагрев. Характеристика знойности погоды. Зависит от высоты солнца над горизонтом, облачности и скорости ветра. Ночью, в пасмурную погоду, а также при ветре 12 м/с и более поправка равна нулю.
P - Атмосферное давление - приведенное к уровню моря атмосферное давление.
Po - Атмосферное давление - измеренное на уровне метеостанции атмосферное давление.
Tmin - Минимальная температура - минимум температуры воздуха на высоте 2 м над землей.
Tmax - Максимальная температура - максимум температуры воздуха на высоте 2 м над землей.
R - Количество осадков - Количество выпавших осадков за период времени, мм. При наведении курсора мыши на число - период времени, за который выпало указанное количество осадков.
R24 - Количество осадков - Количество выпавших осадков за 24 часа, мм.
S - Снежный покров - Высота снежного покрова, см. При наведении курсора мыши на число - состояние снежного покрова и степень покрытия местности в баллах.